VE3MNX Weather Reports


time (UTC)temp
C
wind
direction
speed
KPH
gust
KPH
rain 1hr
cm
rain 24hr
cm
rain mn
cm
humidity
%
barometer
mb
20260503193813 11 241 11.3 19.3 0.00 0.00 0.00 84 1009.8
20260503192314 13 245 14.5 19.3 0.00 0.00 0.00 80 1009.8
20260503190814 12 246 19.3 24.1 0.00 0.00 0.00 75 1010.2
20260503185318 12 262 12.9 20.9 0.00 0.00 0.00 79 1010.2
20260503183816 12 265 16.1 22.5 0.00 0.00 0.00 77 1010.5
20260503182313 12 255 20.9 25.7 0.00 0.00 0.00 78 1010.8
20260503180813 11 262 16.1 25.7 0.00 0.00 0.00 80 1011.2
20260503175314 11 230 16.1 22.5 0.00 0.00 0.00 79 1011.2
20260503173813 11 262 19.3 27.4 0.00 0.00 0.00 78 1011.2
20260503172316 11 257 16.1 24.1 0.00 0.00 0.00 79 1011.5
20260503170814 12 239 14.5 22.5 0.00 0.00 0.00 74 1011.5
20260503150814 11 255 22.5 25.7 0.00 0.00 0.00 75 1012.2
20260503130813 9 254 16.1 22.5 0.00 0.00 0.00 79 1013.2
20260503110818 5 253 4.8 11.3 0.00 0.00 0.00 67 1013.9
20260503080814 4 298 4.8 8.0 0.00 0.00 0.00 71 1013.9
20260503072314 5 294 4.8 8.0 0.00 0.00 0.00 69 1014.2
20260503070813 5 288 4.8 8.0 0.00 0.00 0.00 69 1014.2
20260503053813 5 288 3.2 8.0 0.00 0.00 0.00 64 1014.6
20260503052313 5 288 4.8 8.0 0.00 0.00 0.00 65 1014.9
20260503050816 5 294 4.8 9.7 0.00 0.00 0.00 64 1014.9
20260503045314 5 291 4.8 8.0 0.00 0.00 0.00 64 1014.7
20260503043813 5 289 3.2 8.0 0.00 0.00 0.00 65 1014.9
20260503042315 5 291 3.2 8.0 0.00 0.00 0.00 64 1015.2
20260503040813 5 294 3.2 4.8 0.00 0.00 0.00 65 1014.9
20260503035314 5 297 3.2 4.8 0.00 0.00 0.00 64 1015.2
20260503033815 5 279 3.2 4.8 0.00 0.00 0.00 63 1015.2
20260503032313 5 286 3.2 3.2 0.00 0.00 0.00 70 1015.2
20260503030812 6 267 1.6 8.0 0.00 0.00 0.00 71 1015.6
20260503025313 6 258 1.6 4.8 0.00 0.00 0.00 77 1015.2
20260503023813 6 243 3.2 11.3 0.00 0.00 0.00 78 1015.6
20260503022314 6 239 4.8 11.3 0.00 0.00 0.00 78 1015.6
20260503020813 6 235 9.7 11.3 0.00 0.00 0.00 76 1015.6
20260503015314 6 242 8.0 11.3 0.00 0.00 0.00 83 1015.6
20260503013814 6 224 8.0 11.3 0.00 0.00 0.00 78 1015.2
20260503012313 6 217 11.3 14.5 0.00 0.00 0.00 77 1015.6
20260503010813 6 243 9.7 12.9 0.00 0.00 0.00 78 1015.6
20260503005313 6 233 9.7 11.3 0.00 0.00 0.00 72 1015.2
20260503003813 6 233 9.7 11.3 0.00 0.00 0.00 73 1015.2
20260503002318 6 253 4.8 8.0 0.00 0.00 0.00 70 1015.3
20260503000814 6 293 1.6 3.2 0.00 0.00 0.00 69 1015.2
20260502235313 7 303 3.2 4.8 0.00 0.00 0.00 59 1015.0
20260502233814 7 305 1.6 3.2 0.00 0.00 0.00 59 1015.2
20260502232313 7 310 3.2 8.0 0.00 0.00 0.00 55 1015.2
20260502230812 7 337 4.8 8.0 0.00 0.00 0.00 54 1014.9
20260502225313 7 328 8.0 9.7 0.00 0.00 0.00 55 1015.2
20260502223812 7 339 4.8 9.7 0.00 0.00 0.00 53 1014.9
20260502222313 7 334 4.8 9.7 0.00 0.00 0.00 52 1015.2
20260502220814 7 318 8.0 11.3 0.00 0.00 0.00 53 1015.2
20260502215312 7 323 9.7 12.9 0.00 0.00 0.00 49 1015.2
20260502213813 7 347 8.0 9.7 0.00 0.00 0.00 51 1014.9
20260502212313 7 332 11.3 14.5 0.00 0.00 0.00 52 1015.2
20260502210813 7 4 4.8 11.3 0.00 0.00 0.00 51 1015.2
20260502205313 8 354 9.7 16.1 0.00 0.00 0.00 52 1014.9
20260502203812 8 344 8.0 11.3 0.00 0.00 0.00 54 1015.2
20260502202313 7 306 4.8 12.9 0.00 0.00 0.00 53 1015.6
20260502200812 8 318 9.7 14.5 0.00 0.00 0.00 56 1015.6
20260502195314 7 329 9.7 14.5 0.00 0.00 0.00 56 1015.6